Time,TemperatureF,DewpointF,PressureIn,WindDirection,WindDirectionDegrees,WindSpeedMPH,WindSpeedGustMPH,Humidity,HourlyPrecipIn,Conditions,Clouds,dailyrainin,SolarRadiationWatts/m^2,SoftwareType,DateUTC
2013-04-08 00:02:00,37.0,28.0,-100.00,SW,231,2.0,14.0,71,0.00,,,0.81,0.000000,,2013-04-08 06:02:00,
2013-04-08 00:12:00,37.0,28.0,-100.00,SW,231,2.0,14.0,71,0.00,,,0.81,0.000000,,2013-04-08 06:12:00,
2013-04-08 00:22:00,37.0,28.0,-100.00,SW,231,2.0,14.0,71,0.00,,,0.81,0.000000,,2013-04-08 06:22:00,
2013-04-08 00:32:00,37.0,28.0,-100.00,SW,231,2.0,14.0,71,0.00,,,0.81,0.000000,,2013-04-08 06:32:00,
2013-04-08 00:42:00,35.0,28.0,-100.00,NW,314,4.0,14.0,75,0.00,,,0.69,0.000000,,2013-04-08 06:42:00,
2013-04-08 01:02:00,35.0,28.0,-100.00,NW,314,4.0,14.0,75,0.00,,,0.69,0.000000,,2013-04-08 07:02:00,
2013-04-08 01:12:00,35.0,28.0,-100.00,NW,314,4.0,14.0,75,0.00,,,0.69,0.000000,,2013-04-08 07:12:00,
2013-04-08 01:22:00,35.0,28.0,-100.00,NW,314,4.0,14.0,75,0.00,,,0.69,0.000000,,2013-04-08 07:22:00,
2013-04-08 01:32:00,35.0,28.0,-100.00,NW,314,4.0,14.0,75,0.00,,,0.69,0.000000,,2013-04-08 07:32:00,
2013-04-08 01:42:00,35.0,27.0,-100.00,North,5,2.0,12.0,71,0.00,,,0.57,0.000000,,2013-04-08 07:42:00,
2013-04-08 02:02:00,35.0,27.0,-100.00,North,5,2.0,12.0,71,0.00,,,0.57,0.000000,,2013-04-08 08:02:00,
2013-04-08 02:12:00,35.0,27.0,-100.00,North,5,2.0,12.0,71,0.00,,,0.57,0.000000,,2013-04-08 08:12:00,
2013-04-08 02:22:00,35.0,27.0,-100.00,North,5,2.0,12.0,71,0.00,,,0.57,0.000000,,2013-04-08 08:22:00,
2013-04-08 02:32:00,35.0,27.0,-100.00,North,5,2.0,12.0,71,0.00,,,0.57,0.000000,,2013-04-08 08:32:00,
2013-04-08 02:42:00,35.0,24.0,-100.00,NNE,18,2.0,10.0,63,0.00,,,0.53,0.000000,,2013-04-08 08:42:00,
2013-04-08 03:02:00,35.0,24.0,-100.00,NNE,18,2.0,10.0,63,0.00,,,0.53,0.000000,,2013-04-08 09:02:00,
2013-04-08 03:12:00,35.0,24.0,-100.00,NNE,18,2.0,10.0,63,0.00,,,0.53,0.000000,,2013-04-08 09:12:00,
2013-04-08 03:22:00,35.0,24.0,-100.00,NNE,18,2.0,10.0,63,0.00,,,0.53,0.000000,,2013-04-08 09:22:00,
2013-04-08 03:33:00,35.0,24.0,-100.00,NNE,18,2.0,10.0,63,0.00,,,0.53,0.000000,,2013-04-08 09:33:00,
2013-04-08 03:42:00,34.0,24.0,-100.00,NNE,31,3.0,9.0,66,0.00,,,0.52,0.000000,,2013-04-08 09:42:00,
2013-04-08 04:03:00,34.0,24.0,-100.00,NNE,31,3.0,9.0,66,0.00,,,0.52,0.000000,,2013-04-08 10:03:00,
2013-04-08 04:13:00,34.0,24.0,-100.00,NNE,31,3.0,9.0,66,0.00,,,0.52,0.000000,,2013-04-08 10:13:00,
2013-04-08 04:23:00,34.0,24.0,-100.00,NNE,31,3.0,9.0,66,0.00,,,0.52,0.000000,,2013-04-08 10:23:00,
2013-04-08 04:32:00,34.0,24.0,-100.00,NNE,31,3.0,9.0,66,0.00,,,0.52,0.000000,,2013-04-08 10:32:00,
2013-04-08 04:42:00,34.0,24.0,-100.00,NE,43,2.0,5.0,67,0.00,,,0.47,0.000000,,2013-04-08 10:42:00,
2013-04-08 05:02:00,34.0,24.0,-100.00,NE,43,2.0,5.0,67,0.00,,,0.47,0.000000,,2013-04-08 11:02:00,
2013-04-08 05:12:00,34.0,24.0,-100.00,NE,43,2.0,5.0,67,0.00,,,0.47,0.000000,,2013-04-08 11:12:00,
2013-04-08 05:22:00,34.0,24.0,-100.00,NE,43,2.0,5.0,67,0.00,,,0.47,0.000000,,2013-04-08 11:22:00,
2013-04-08 05:32:00,34.0,24.0,-100.00,NE,43,2.0,5.0,67,0.00,,,0.47,0.000000,,2013-04-08 11:32:00,
2013-04-08 05:42:00,34.0,23.0,-100.00,NNW,340,2.0,4.0,65,0.00,,,0.41,0.000000,,2013-04-08 11:42:00,
2013-04-08 06:02:00,34.0,23.0,-100.00,NNW,340,2.0,4.0,65,0.00,,,0.41,0.000000,,2013-04-08 12:02:00,
2013-04-08 06:12:00,34.0,23.0,-100.00,NNW,340,2.0,4.0,65,0.00,,,0.41,0.000000,,2013-04-08 12:12:00,
2013-04-08 06:22:00,34.0,23.0,-100.00,NNW,340,2.0,4.0,65,0.00,,,0.41,0.000000,,2013-04-08 12:22:00,
2013-04-08 06:32:00,34.0,23.0,-100.00,NNW,340,2.0,4.0,65,0.00,,,0.41,0.000000,,2013-04-08 12:32:00,
2013-04-08 06:42:00,33.0,23.0,-100.00,North,351,2.0,8.0,66,0.00,,,0.36,0.000000,,2013-04-08 12:42:00,
2013-04-08 07:02:00,33.0,23.0,-100.00,North,351,2.0,8.0,66,0.00,,,0.36,0.000000,,2013-04-08 13:02:00,
2013-04-08 07:12:00,33.0,23.0,-100.00,North,351,2.0,8.0,66,0.00,,,0.36,0.000000,,2013-04-08 13:12:00,
2013-04-08 07:22:00,33.0,23.0,-100.00,North,351,2.0,8.0,66,0.00,,,0.36,0.000000,,2013-04-08 13:22:00,
2013-04-08 07:32:00,33.0,23.0,-100.00,North,351,2.0,8.0,66,0.00,,,0.36,0.000000,,2013-04-08 13:32:00,
2013-04-08 07:42:00,34.0,23.0,-100.00,NNE,13,2.0,7.0,64,0.00,,,0.33,5.000000,,2013-04-08 13:42:00,
2013-04-08 08:02:00,34.0,23.0,-100.00,NNE,13,2.0,7.0,64,0.00,,,0.33,5.000000,,2013-04-08 14:02:00,
2013-04-08 08:12:00,34.0,23.0,-100.00,NNE,13,2.0,7.0,64,0.00,,,0.33,5.000000,,2013-04-08 14:12:00,
2013-04-08 08:22:00,34.0,23.0,-100.00,NNE,13,2.0,7.0,64,0.00,,,0.33,5.000000,,2013-04-08 14:22:00,
2013-04-08 08:32:00,34.0,23.0,-100.00,NNE,13,2.0,7.0,64,0.00,,,0.33,5.000000,,2013-04-08 14:32:00,
2013-04-08 08:42:00,35.0,23.0,-100.00,NNW,346,5.0,8.0,62,0.00,,,0.25,63.000000,,2013-04-08 14:42:00,
2013-04-08 09:02:00,35.0,23.0,-100.00,NNW,346,5.0,8.0,62,0.00,,,0.25,63.000000,,2013-04-08 15:02:00,
2013-04-08 09:12:00,35.0,23.0,-100.00,NNW,346,5.0,8.0,62,0.00,,,0.25,63.000000,,2013-04-08 15:12:00,
2013-04-08 09:22:00,35.0,23.0,-100.00,NNW,346,5.0,8.0,62,0.00,,,0.25,63.000000,,2013-04-08 15:22:00,
2013-04-08 09:33:00,35.0,23.0,-100.00,NNW,346,5.0,8.0,62,0.00,,,0.25,63.000000,,2013-04-08 15:33:00,
2013-04-08 10:03:00,38.0,25.0,-100.00,NW,318,3.0,9.0,58,0.00,,,0.10,185.000000,,2013-04-08 16:03:00,
2013-04-08 10:12:00,38.0,25.0,-100.00,NW,318,3.0,9.0,58,0.00,,,0.10,185.000000,,2013-04-08 16:12:00,
2013-04-08 10:22:00,38.0,25.0,-100.00,NW,318,3.0,9.0,58,0.00,,,0.10,185.000000,,2013-04-08 16:22:00,
2013-04-08 10:32:00,38.0,25.0,-100.00,NW,318,3.0,9.0,58,0.00,,,0.10,185.000000,,2013-04-08 16:32:00,
2013-04-08 10:41:00,38.0,25.0,-100.00,NW,318,3.0,9.0,58,0.00,,,0.10,185.000000,,2013-04-08 16:41:00,
2013-04-08 10:42:00,41.0,27.0,-100.00,NNW,344,4.0,13.0,56,0.00,,,0.04,314.000000,,2013-04-08 16:42:00,
2013-04-08 11:02:00,41.0,27.0,-100.00,NNW,344,4.0,13.0,56,0.00,,,0.04,314.000000,,2013-04-08 17:02:00,
2013-04-08 11:12:00,41.0,27.0,-100.00,NNW,344,4.0,13.0,56,0.00,,,0.04,314.000000,,2013-04-08 17:12:00,
2013-04-08 11:22:00,41.0,27.0,-100.00,NNW,344,4.0,13.0,56,0.00,,,0.04,314.000000,,2013-04-08 17:22:00,
2013-04-08 11:32:00,41.0,27.0,-100.00,NNW,344,4.0,13.0,56,0.00,,,0.04,314.000000,,2013-04-08 17:32:00,
2013-04-08 11:42:00,41.0,26.0,-100.00,NNW,330,3.0,15.0,55,0.00,,,0.03,361.000000,,2013-04-08 17:42:00,
2013-04-08 12:02:00,41.0,26.0,-100.00,NNW,330,3.0,15.0,55,0.00,,,0.03,361.000000,,2013-04-08 18:02:00,
2013-04-08 12:12:00,41.0,26.0,-100.00,NNW,330,3.0,15.0,55,0.00,,,0.03,361.000000,,2013-04-08 18:12:00,
2013-04-08 12:22:00,41.0,26.0,-100.00,NNW,330,3.0,15.0,55,0.00,,,0.03,361.000000,,2013-04-08 18:22:00,
2013-04-08 12:32:00,41.0,26.0,-100.00,NNW,330,3.0,15.0,55,0.00,,,0.03,361.000000,,2013-04-08 18:32:00,
2013-04-08 12:42:00,43.0,25.0,-100.00,NNW,334,9.0,20.0,48,0.00,,,0.03,434.000000,,2013-04-08 18:42:00,
2013-04-08 13:02:00,43.0,25.0,-100.00,NNW,334,9.0,20.0,48,0.00,,,0.03,434.000000,,2013-04-08 19:02:00,
2013-04-08 13:12:00,43.0,25.0,-100.00,NNW,334,9.0,20.0,48,0.00,,,0.03,434.000000,,2013-04-08 19:12:00,
2013-04-08 13:22:00,43.0,25.0,-100.00,NNW,334,9.0,20.0,48,0.00,,,0.03,434.000000,,2013-04-08 19:22:00,
2013-04-08 13:33:00,43.0,25.0,-100.00,NNW,334,9.0,20.0,48,0.00,,,0.03,434.000000,,2013-04-08 19:33:00,
2013-04-08 13:42:00,45.0,28.0,-100.00,ENE,64,5.0,20.0,52,0.00,,,0.02,556.000000,,2013-04-08 19:42:00,
2013-04-08 14:02:00,45.0,28.0,-100.00,ENE,64,5.0,20.0,52,0.00,,,0.02,556.000000,,2013-04-08 20:02:00,
2013-04-08 14:12:00,45.0,28.0,-100.00,ENE,64,5.0,20.0,52,0.00,,,0.02,556.000000,,2013-04-08 20:12:00,
2013-04-08 14:22:00,45.0,28.0,-100.00,ENE,64,5.0,20.0,52,0.00,,,0.02,556.000000,,2013-04-08 20:22:00,
2013-04-08 14:32:00,45.0,28.0,-100.00,ENE,64,5.0,20.0,52,0.00,,,0.02,556.000000,,2013-04-08 20:32:00,
2013-04-08 14:42:00,46.0,27.0,-100.00,NW,314,6.0,23.0,48,0.00,,,0.02,780.000000,,2013-04-08 20:42:00,
2013-04-08 15:02:00,46.0,27.0,-100.00,NW,314,6.0,23.0,48,0.00,,,0.02,780.000000,,2013-04-08 21:02:00,
2013-04-08 15:12:00,46.0,27.0,-100.00,NW,314,6.0,23.0,48,0.00,,,0.02,780.000000,,2013-04-08 21:12:00,
2013-04-08 15:22:00,46.0,27.0,-100.00,NW,314,6.0,23.0,48,0.00,,,0.02,780.000000,,2013-04-08 21:22:00,
2013-04-08 15:32:00,46.0,27.0,-100.00,NW,314,6.0,23.0,48,0.00,,,0.02,780.000000,,2013-04-08 21:32:00,
2013-04-08 15:42:00,46.0,24.0,-100.00,NW,321,10.0,34.0,42,0.00,,,0.02,791.000000,,2013-04-08 21:42:00,
2013-04-08 16:02:00,46.0,24.0,-100.00,NW,321,10.0,34.0,42,0.00,,,0.02,791.000000,,2013-04-08 22:02:00,
2013-04-08 16:13:00,46.0,24.0,-100.00,NW,321,10.0,34.0,42,0.00,,,0.02,791.000000,,2013-04-08 22:13:00,
2013-04-08 16:22:00,46.0,24.0,-100.00,NW,321,10.0,34.0,42,0.00,,,0.02,791.000000,,2013-04-08 22:22:00,
2013-04-08 16:32:00,46.0,24.0,-100.00,NW,321,10.0,34.0,42,0.00,,,0.02,791.000000,,2013-04-08 22:32:00,
2013-04-08 16:42:00,47.0,25.0,-100.00,NNW,343,6.0,27.0,42,0.00,,,0.00,630.000000,,2013-04-08 22:42:00,
2013-04-08 17:02:00,47.0,25.0,-100.00,NNW,343,6.0,27.0,42,0.00,,,0.00,630.000000,,2013-04-08 23:02:00,
2013-04-08 17:12:00,47.0,25.0,-100.00,NNW,343,6.0,27.0,42,0.00,,,0.00,630.000000,,2013-04-08 23:12:00,
2013-04-08 17:22:00,47.0,25.0,-100.00,NNW,343,6.0,27.0,42,0.00,,,0.00,630.000000,,2013-04-08 23:22:00,
2013-04-08 17:32:00,47.0,25.0,-100.00,NNW,343,6.0,27.0,42,0.00,,,0.00,630.000000,,2013-04-08 23:32:00,
2013-04-08 18:42:00,45.0,25.0,-100.00,NW,326,8.0,25.0,45,-99.99,,,0.00,305.000000,,2013-04-09 00:42:00,
2013-04-08 19:02:00,45.0,25.0,-100.00,NW,326,8.0,25.0,45,-99.99,,,0.00,305.000000,,2013-04-09 01:02:00,
2013-04-08 19:22:00,45.0,25.0,-100.00,NW,326,8.0,25.0,45,-99.99,,,0.00,305.000000,,2013-04-09 01:22:00,
2013-04-08 19:32:00,45.0,25.0,-100.00,NW,326,8.0,25.0,45,-99.99,,,0.00,305.000000,,2013-04-09 01:32:00,
2013-04-08 19:42:00,42.0,24.0,-100.00,WNW,297,4.0,20.0,48,0.00,,,0.00,180.000000,,2013-04-09 01:42:00,
2013-04-08 20:02:00,42.0,24.0,-100.00,WNW,297,4.0,20.0,48,0.00,,,0.00,180.000000,,2013-04-09 02:02:00,
2013-04-08 20:12:00,42.0,24.0,-100.00,WNW,297,4.0,20.0,48,0.00,,,0.00,180.000000,,2013-04-09 02:12:00,
2013-04-08 20:22:00,42.0,24.0,-100.00,WNW,297,4.0,20.0,48,0.00,,,0.00,180.000000,,2013-04-09 02:22:00,
2013-04-08 20:32:00,42.0,24.0,-100.00,WNW,297,4.0,20.0,48,0.00,,,0.00,180.000000,,2013-04-09 02:32:00,
2013-04-08 20:42:00,39.0,25.0,-100.00,NNW,338,4.0,24.0,57,0.00,,,0.00,12.000000,,2013-04-09 02:42:00,
2013-04-08 21:02:00,39.0,25.0,-100.00,NNW,338,4.0,24.0,57,0.00,,,0.00,12.000000,,2013-04-09 03:02:00,
2013-04-08 21:12:00,39.0,25.0,-100.00,NNW,338,4.0,24.0,57,0.00,,,0.00,12.000000,,2013-04-09 03:12:00,
2013-04-08 21:21:00,39.0,25.0,-100.00,NNW,338,4.0,24.0,57,0.00,,,0.00,12.000000,,2013-04-09 03:21:00,
2013-04-08 21:32:00,39.0,25.0,-100.00,NNW,338,4.0,24.0,57,0.00,,,0.00,12.000000,,2013-04-09 03:32:00,
2013-04-08 21:42:00,38.0,26.0,-100.00,NW,320,5.0,14.0,62,0.00,,,0.00,0.000000,,2013-04-09 03:42:00,
2013-04-08 22:02:00,38.0,26.0,-100.00,NW,320,5.0,14.0,62,0.00,,,0.00,0.000000,,2013-04-09 04:02:00,
2013-04-08 22:13:00,38.0,26.0,-100.00,NW,320,5.0,14.0,62,0.00,,,0.00,0.000000,,2013-04-09 04:13:00,
2013-04-08 22:22:00,38.0,26.0,-100.00,NW,320,5.0,14.0,62,0.00,,,0.00,0.000000,,2013-04-09 04:22:00,
2013-04-08 22:32:00,38.0,26.0,-100.00,NW,320,5.0,14.0,62,0.00,,,0.00,0.000000,,2013-04-09 04:32:00,
2013-04-08 22:42:00,37.0,26.0,-100.00,NNW,327,9.0,19.0,63,0.00,,,0.00,0.000000,,2013-04-09 04:42:00,
2013-04-08 23:02:00,37.0,26.0,-100.00,NNW,327,9.0,19.0,63,0.00,,,0.00,0.000000,,2013-04-09 05:02:00,
2013-04-08 23:12:00,37.0,26.0,-100.00,NNW,327,9.0,19.0,63,0.00,,,0.00,0.000000,,2013-04-09 05:12:00,
2013-04-08 23:22:00,37.0,26.0,-100.00,NNW,327,9.0,19.0,63,0.00,,,0.00,0.000000,,2013-04-09 05:22:00,
2013-04-08 23:32:00,37.0,26.0,-100.00,NNW,327,9.0,19.0,63,0.00,,,0.00,0.000000,,2013-04-09 05:32:00,
2013-04-08 23:42:00,37.0,25.0,-100.00,North,350,6.0,18.0,62,0.00,,,0.00,0.000000,,2013-04-09 05:42:00,